"2002/01/01", 63, 83, 37
"2002/01/02", 69, 97, 51
"2002/01/03", 38, 65, 20
"2002/01/04", 56, 76, 34
"2002/01/05", 60, 87, 35
"2002/01/06", 51, 75, 30
"2002/01/07", 73, 92, 54
"2002/01/08", 67,100, 22
"2002/01/09", 40, 59, 21
"2002/01/10", 54, 78, 36
"2002/01/11", 61, 98, 34
"2002/01/12", 53, 81, 30
"2002/01/13", 62, 92, 35
"2002/01/14", 72, 95, 48
"2002/01/15", 75, 90, 51
"2002/01/16", 90, 99, 76
"2002/01/17", 79, 94, 64
"2002/01/18", 61, 84, 37
"2002/01/19", 58, 85, 28
"2002/01/20", 67, 86, 47
"2002/01/21", 90,100, 57
"2002/01/22", 62, 98, 26
"2002/01/23", 45, 82, 19
"2002/01/24", 48, 72, 20
"2002/01/25", 52, 80, 24
"2002/01/26", 72,100, 51
"2002/01/27", 77,101, 38
"2002/01/28", 44, 70, 28
"2002/01/29", 51, 81, 18
"2002/01/30", 52, 79, 24
"2002/01/31", 49, 73, 25
"2002/02/01", 53, 75, 26
"2002/02/02", 71, 92, 47
"2002/02/03", 83, 96, 60
"2002/02/04", 77, 88, 55
"2002/02/05", 85, 99, 57
"2002/02/06", 86,100, 57
"2002/02/07", 78,101, 37
"2002/02/08", 58, 93, 32
"2002/02/09", 46, 78, 25
"2002/02/10", 60, 94, 30
"2002/02/11", 52, 83, 20
"2002/02/12", 45, 82, 18
"2002/02/13", 61, 84, 38
"2002/02/14", 48, 80, 17
"2002/02/15", 54, 86, 29
"2002/02/16", 56, 81, 27
"2002/02/17", 78, 99, 52
"2002/02/18", 61,101, 19
"2002/02/19", 42, 73, 23
"2002/02/20", 48, 75, 16
"2002/02/21", 58, 85, 32
"2002/02/22", 76, 93, 48
"2002/02/23", 60, 93, 33
"2002/02/24", 49, 65, 32
"2002/02/25", 65, 90, 48
"2002/02/26", 83, 95, 55
"2002/02/27", 84, 98, 62
"2002/02/28", 96,100, 86
"2002/03/01", 83, 99, 55
"2002/03/02", 69, 94, 42
"2002/03/03", 51, 73, 38
"2002/03/04", 64, 88, 34
"2002/03/05", 87, 99, 67
"2002/03/06", 99,101, 94
"2002/03/07", 57,101, 21
"2002/03/08", 45, 84, 16
"2002/03/09", 60, 86, 28
"2002/03/10", 67,100, 15
"2002/03/11", 58, 88, 13
"2002/03/12", 61, 93, 24
"2002/03/13", 48, 79, 19
"2002/03/14", 64, 95, 29
"2002/03/15", 68, 99, 37
"2002/03/16", 60, 88, 37
"2002/03/17", 65, 98, 16
"2002/03/18", 54, 91, 13
"2002/03/19", 41, 59, 13
"2002/03/20", 46, 87, 13
"2002/03/21", 73, 98, 32
"2002/03/22", 78, 94, 63
"2002/03/23", 84, 97, 43
"2002/03/24", 48, 83, 21
"2002/03/25", 61, 87, 41
"2002/03/26", 81, 99, 66
"2002/03/27", 93,101, 53
"2002/03/28", 51, 78, 31
"2002/03/29", 86, 99, 73
"2002/03/30", 74,101, 28
"2002/03/31", 82, 93, 70
"2002/04/01", 68, 86, 38
"2002/04/02", 73, 96, 31
"2002/04/03", 79, 98, 36
"2002/04/04", 62, 86, 27
"2002/04/05", 53, 86, 25
"2002/04/06", 56, 87, 31
"2002/04/07", 86, 99, 61
"2002/04/08", 95,101, 64
"2002/04/09", 94,101, 80
"2002/04/10", 77, 95, 49
"2002/04/11", 79, 94, 52
"2002/04/12", 84, 99, 57
"2002/04/13","*","*","*"
"2002/04/14","*","*","*"
"2002/04/15","*","*","*"
"2002/04/16", 70, 81, 46
"2002/04/17", 79, 97, 67
"2002/04/18", 60, 96, 42
"2002/04/19", 51, 81, 32
"2002/04/20", 69, 87, 45
"2002/04/21", 89, 98, 70
"2002/04/22", 87, 98, 76
"2002/04/23", 78, 96, 56
"2002/04/24", 79, 98, 61
"2002/04/25", 82,101, 55
"2002/04/26", 67, 89, 49
"2002/04/27", 64, 77, 41
"2002/04/28", 60, 84, 33
"2002/04/29", 58, 85, 19
"2002/04/30", 77, 91, 67
"2002/05/01", 87, 97, 71
"2002/05/02", 60, 95, 26
"2002/05/03", 67, 94, 33
"2002/05/04", 72, 86, 53
"2002/05/05", 78, 92, 63
"2002/05/06", 51, 76, 31
"2002/05/07", 89,100, 64
"2002/05/08", 96,101, 90
"2002/05/09", 86, 93, 81
"2002/05/10", 90, 98, 80
"2002/05/11", 89, 99, 74
"2002/05/12", 85, 91, 75
"2002/05/13", 85, 94, 77
"2002/05/14", 82, 92, 60
"2002/05/15", 78, 90, 60
"2002/05/16", 81, 93, 70
"2002/05/17", 90, 99, 77
"2002/05/18", 96, 99, 83
"2002/05/19", 89,100, 72
"2002/05/20", 89, 97, 79
"2002/05/21", 77, 94, 46
"2002/05/22", 72, 94, 55
"2002/05/23", 79, 95, 44
"2002/05/24", 73, 97, 43
"2002/05/25", 51, 83, 18
"2002/05/26", 60, 89, 33
"2002/05/27", 78,100, 39
"2002/05/28", 77,101, 50
"2002/05/29", 72, 87, 49
"2002/05/30", 78, 96, 48
"2002/05/31", 72, 92, 61
"2002/06/01", 81, 97, 59
"2002/06/02", 76, 98, 46
"2002/06/03", 67, 91, 42
"2002/06/04", 78, 92, 60
"2002/06/05", 75, 97, 46
"2002/06/06", 72, 96, 50
"2002/06/07", 78, 99, 48
"2002/06/08", 74, 97, 46
"2002/06/09", 52, 90, 18
"2002/06/10", 56, 84, 29
"2002/06/11", 83, 97, 71
"2002/06/12", 95, 99, 83
"2002/06/13", 98,100, 94
"2002/06/14", 91, 97, 81
"2002/06/15", 97,100, 92
"2002/06/16", 95, 99, 87
"2002/06/17", 94, 99, 80
"2002/06/18", 98,100, 91
"2002/06/19", 71, 98, 39
"2002/06/20", 88, 99, 66
"2002/06/21", 88,100, 60
"2002/06/22", 86, 98, 76
"2002/06/23", 87, 98, 77
"2002/06/24", 74, 97, 52
"2002/06/25", 95, 99, 82
"2002/06/26", 88, 98, 78
"2002/06/27", 90, 99, 78
"2002/06/28", 87, 98, 64
"2002/06/29", 93,100, 81
"2002/06/30", 96,100, 85
"2002/07/01", 99,101, 94
"2002/07/02", 96,101, 88
"2002/07/03", 95,100, 86
"2002/07/04", 95,101, 76
"2002/07/05", 96,100, 87
"2002/07/06", 82,100, 58
"2002/07/07", 79, 96, 63
"2002/07/08", 80, 96, 59
"2002/07/09", 90,101, 59
"2002/07/10", 98,102, 91
"2002/07/11", 74,100, 39
"2002/07/12", 75, 95, 54
"2002/07/13", 86, 94, 70
"2002/07/14", 78, 96, 63
"2002/07/15", 80, 97, 65
"2002/07/16", 87,100, 72
"2002/07/17", 87, 97, 67
"2002/07/18", 81, 97, 61
"2002/07/19", 84, 98, 64
"2002/07/20", 77, 91, 60
"2002/07/21", 83, 98, 58
"2002/07/22", 82, 97, 58
"2002/07/23", 89,102, 65
"2002/07/24", 94,102, 83
"2002/07/25", 99,101, 91
"2002/07/26", 88,101, 62
"2002/07/27", 85, 99, 54
"2002/07/28", 86,100, 70
"2002/07/29", 90,100, 77
"2002/07/30", 90,101, 68
"2002/07/31", 82,100, 49
"2002/08/01", 84,100, 49
"2002/08/02", 85, 99, 51
"2002/08/03", 94,101, 84
"2002/08/04", 92,101, 76
"2002/08/05", 86, 99, 60
"2002/08/06", 83, 98, 63
"2002/08/07", 79, 98, 52
"2002/08/08", 73, 93, 44
"2002/08/09", 75, 87, 61
"2002/08/10", 75, 91, 58
"2002/08/11", 79,101, 58
"2002/08/12", 95,101, 86
"2002/08/13", 84, 99, 56
"2002/08/14", 78,100, 52
"2002/08/15", 80, 99, 54
"2002/08/16", 96,100, 88
"2002/08/17", 93,100, 82
"2002/08/18", 97,100, 92
"2002/08/19", 99,101, 94
"2002/08/20", 65, 97, 36
"2002/08/21", 59, 80, 28
"2002/08/22", 64, 78, 43
"2002/08/23", 85,101, 65
"2002/08/24", 89,100, 62
"2002/08/25", 89,100, 66
"2002/08/26", 94,100, 82
"2002/08/27", 95,100, 79
"2002/08/28", 90,102, 67
"2002/08/29", 88,102, 66
"2002/08/30", 86,100, 57
"2002/08/31", 83,100, 51
"2002/09/01", 83, 98, 53
"2002/09/02", 84, 98, 60
"2002/09/03", 82, 99, 46
"2002/09/04", 87,101, 61
"2002/09/05", 92,101, 82
"2002/09/06", 97,100, 89
"2002/09/07", 97,100, 92
"2002/09/08", 95, 99, 82
"2002/09/09", 97,100, 89
"2002/09/10", 91, 99, 79
"2002/09/11", 83, 98, 55
"2002/09/12", 82,100, 56
"2002/09/13", 91, 99, 80
"2002/09/14", 88, 96, 79
"2002/09/15", 93, 99, 85
"2002/09/16", 95,100, 83
"2002/09/17",100,101, 98
"2002/09/18", 75,101, 52
"2002/09/19", 70, 95, 43
"2002/09/20", 79, 97, 57
"2002/09/21", 84, 97, 61
"2002/09/22", 89, 96, 77
"2002/09/23", 87, 99, 68
"2002/09/24", 70, 97, 42
"2002/09/25", 71, 98, 39
"2002/09/26", 73, 93, 56
"2002/09/27", 76, 87, 61
"2002/09/28", 98,102, 77
"2002/09/29", 89,100, 71
"2002/09/30", 92, 98, 77
"2002/10/01","*","*","*"
"2002/10/02","*","*","*"
"2002/10/03", 81, 97, 54
"2002/10/04", 84,101, 35
"2002/10/05", 88,101, 70
"2002/10/06", 93, 99, 80
"2002/10/07", 85, 98, 62
"2002/10/08", 82, 95, 69
"2002/10/09", 85, 98, 66
"2002/10/10", 64, 87, 44
"2002/10/11", 65, 87, 49
"2002/10/12", 78, 94, 61
"2002/10/13", 80, 93, 61
"2002/10/14", 77, 98, 49
"2002/10/15", 76, 96, 43
"2002/10/16", 72,100, 37
"2002/10/17", 80, 96, 53
"2002/10/18", 93, 98, 87
"2002/10/19", 95,100, 86
"2002/10/20", 95, 99, 89
"2002/10/21", 95,100, 80
"2002/10/22", 81, 96, 60
"2002/10/23", 72, 83, 58
"2002/10/24", 92, 98, 81
"2002/10/25", 86, 97, 68
"2002/10/26", 97,101, 90
"2002/10/27", 85,101, 57
"2002/10/28", 58, 90, 34
"2002/10/29", 48, 65, 38
"2002/10/30", 58, 76, 38
"2002/10/31", 70, 90, 49
"2002/11/01", 95,102, 79
"2002/11/02", 65,102, 31
"2002/11/03", 61, 96, 33
"2002/11/04", 62, 86, 28
"2002/11/05", 64, 95, 33
"2002/11/06", 62, 93, 34
"2002/11/07", 80, 96, 58
"2002/11/08", 87,100, 63
"2002/11/09", 59,100, 29
"2002/11/10", 59, 88, 33
"2002/11/11", 74, 95, 44
"2002/11/12", 86, 98, 78
"2002/11/13", 66,100, 35
"2002/11/14", 58, 85, 36
"2002/11/15", 65, 81, 43
"2002/11/16","*","*","*"
"2002/11/17","*","*","*"
"2002/11/18","*","*","*"
"2002/11/19", 58, 86, 38
"2002/11/20", 80, 88, 62
"2002/11/21", 75, 96, 55
"2002/11/22", 68, 80, 56
"2002/11/23", 81, 88, 75
"2002/11/24", 86, 91, 80
"2002/11/25", 97,102, 85
"2002/11/26", 72,101, 30
"2002/11/27", 57, 76, 39
"2002/11/28", 48, 68, 30
"2002/11/29", 71, 97, 42
"2002/11/30", 86, 98, 59
"2002/12/01", 92, 98, 85
"2002/12/02", 81, 92, 63
"2002/12/03", 80, 92, 66
"2002/12/04", 97,102, 86
"2002/12/05", 96,102, 84
"2002/12/06", 75, 95, 51
"2002/12/07", 86,100, 66
"2002/12/08", 80,100, 65
"2002/12/09", 97,101, 86
"2002/12/10", 91, 98, 79
"2002/12/11", 70, 96, 42
"2002/12/12", 81, 97, 58
"2002/12/13", 67, 98, 36
"2002/12/14", 63, 87, 38
"2002/12/15", 80, 95, 54
"2002/12/16", 85, 98, 60
"2002/12/17", 65,100, 30
"2002/12/18", 77, 96, 62
"2002/12/19", 87, 98, 71
"2002/12/20", 77, 96, 56
"2002/12/21", 88,100, 75
"2002/12/22", 85, 98, 74
"2002/12/23", 71, 86, 47
"2002/12/24", 85, 94, 71
"2002/12/25", 90, 99, 63
"2002/12/26", 48, 87, 27
"2002/12/27", 42, 54, 26
"2002/12/28", 69, 94, 45
"2002/12/29", 54, 87, 28
"2002/12/30", 64, 95, 33
"2002/12/31", 75, 95, 61
